Simultaneous Nadir Overpasses (SNOs) Predictions

Prediction of SNOs between NOAA-21 and METOP-C Satellite Orbit:

Table of predicted SNOs for the next 14.0 days since TLE Epoch: 4/5/2025
Index Date (NOAA-21) Time (NOAA-21) Lat,Lon (NOAA-21) SZA (NOAA-21 ) Date (METOP-C) Time (METOP-C) Lat,Lon (METOP-C) SZA (METOP-C ) Distance(km) Time Diff (sec)
1 04/08/2025 07:11:37 73.45, 62.47 66.31 04/08/2025 07:12:44 73.42, 65.16 66.13 85.17 67
2 04/08/2025 08:02:20 -73.38,-130.04 113.80 04/08/2025 08:03:28 -73.33,-127.73 113.97 73.98 68
3 04/08/2025 08:53:01 73.16, 37.75 65.96 04/08/2025 08:54:11 73.14, 39.21 65.86 47.09 70
4 04/08/2025 09:43:44 -73.09,-154.77 114.14 04/08/2025 09:44:55 -73.05,-153.67 114.24 36.10 71
5 04/08/2025 10:34:25 72.87, 13.00 65.61 04/08/2025 10:35:39 72.81, 13.17 65.53 8.25 74
6 04/08/2025 11:25:08 -72.79,-179.53 114.49 04/08/2025 11:26:22 -72.77,-179.59 114.52 3.09 74
7 04/08/2025 12:15:53 72.78, -12.18 65.49 04/08/2025 12:17:01 72.79, -12.22 65.49 1.80 68
8 04/08/2025 13:06:38 -72.80, 155.08 114.50 04/08/2025 13:07:43 -72.80, 155.13 114.52 1.68 65
9 04/08/2025 13:57:23 72.79, -37.58 65.47 04/08/2025 13:58:23 72.76, -37.61 65.44 2.85 60
10 04/08/2025 14:48:07 -72.76, 129.79 114.57 04/08/2025 14:49:05 -72.78, 129.74 114.57 2.11 58
11 04/08/2025 15:38:53 72.80, -62.97 65.46 04/08/2025 15:39:44 72.79, -62.90 65.43 2.65 51
12 04/08/2025 16:29:37 -72.77, 104.39 114.59 04/08/2025 16:30:27 -72.75, 104.35 114.62 3.05 50
13 04/08/2025 17:20:22 72.76, -88.26 65.39 04/08/2025 17:21:06 72.77, -88.29 65.39 1.21 44
14 04/08/2025 18:11:07 -72.78, 79.00 114.60 04/08/2025 18:11:48 -72.78, 79.06 114.62 2.24 41
15 04/08/2025 19:01:52 72.77,-113.66 65.37 04/08/2025 19:02:28 72.74,-113.68 65.34 3.04 36
16 04/08/2025 19:52:36 -72.74, 53.71 114.67 04/08/2025 19:53:10 -72.75, 53.67 114.67 1.53 34
17 04/08/2025 20:43:22 72.78,-139.05 65.35 04/08/2025 20:43:49 72.77,-138.96 65.33 3.24 27
18 04/08/2025 21:34:06 -72.75, 28.31 114.69 04/08/2025 21:34:32 -72.73, 28.28 114.72 3.13 26
19 04/08/2025 22:24:51 72.74,-164.34 65.28 04/08/2025 22:25:11 72.74,-164.35 65.29 0.62 20
20 04/08/2025 23:15:36 -72.76, 2.92 114.70 04/08/2025 23:15:53 -72.75, 2.99 114.72 2.82 17
21 04/09/2025 00:06:21 72.75, 170.26 65.27 04/09/2025 00:06:33 72.72, 170.26 65.24 3.35 12
22 04/09/2025 00:57:05 -72.72, -22.37 114.78 04/09/2025 00:57:15 -72.73, -22.40 114.77 0.93 10
23 04/09/2025 01:47:50 72.71, 144.97 65.20 04/09/2025 01:47:55 72.69, 144.87 65.19 3.78 5
24 04/09/2025 02:38:35 -72.73, -47.77 114.79 04/09/2025 02:38:37 -72.71, -47.79 114.82 3.34 2
25 04/09/2025 03:29:20 72.72, 119.57 65.18 04/09/2025 03:29:16 72.72, 119.58 65.19 0.26 4
26 04/09/2025 04:20:05 -72.74, -73.17 114.81 04/09/2025 04:19:58 -72.73, -73.07 114.82 3.42 7
27 04/09/2025 05:10:49 72.68, 94.28 65.11 04/09/2025 05:10:38 72.70, 94.19 65.14 3.62 11
28 04/09/2025 06:01:34 -72.70, -98.46 114.88 04/09/2025 06:01:20 -72.71, -98.46 114.87 0.31 14
29 04/09/2025 06:52:19 72.69, 68.89 65.10 04/09/2025 06:52:00 72.67, 68.80 65.09 3.53 19
30 04/09/2025 07:43:04 -72.71,-123.85 114.89 04/09/2025 07:42:42 -72.68,-123.85 114.92 3.66 22
31 04/09/2025 08:33:49 72.70, 43.49 65.08 04/09/2025 08:33:21 72.70, 43.51 65.09 0.77 28
32 04/09/2025 09:24:33 -72.67,-149.14 114.96 04/09/2025 09:24:03 -72.71,-149.14 114.92 3.72 30
33 04/09/2025 10:15:18 72.66, 18.20 65.01 04/09/2025 10:14:43 72.67, 18.12 65.04 2.96 35
34 04/09/2025 11:06:03 -72.69,-174.54 114.98 04/09/2025 11:05:25 -72.68,-174.53 114.97 0.33 38
35 04/09/2025 11:56:48 72.67, -7.19 65.00 04/09/2025 11:56:05 72.65, -7.27 64.99 3.40 43
36 04/09/2025 12:47:32 -72.64, 160.17 115.05 04/09/2025 12:46:47 -72.66, 160.08 115.02 3.37 45
37 04/09/2025 13:38:18 72.68, -32.59 64.98 04/09/2025 13:37:26 72.67, -32.55 64.99 1.42 52
38 04/09/2025 14:29:02 -72.66, 134.78 115.06 04/09/2025 14:28:08 -72.69, 134.79 115.02 3.39 54
39 04/09/2025 15:19:47 72.64, -57.88 64.91 04/09/2025 15:18:48 72.65, -57.94 64.94 2.28 59
40 04/09/2025 16:10:32 -72.67, 109.38 115.08 04/09/2025 16:09:30 -72.66, 109.40 115.07 0.98 62
41 04/09/2025 17:01:17 72.65, -83.28 64.90 04/09/2025 17:00:09 72.68, -83.23 64.94 3.22 68
42 04/09/2025 17:52:01 -72.63, 84.09 115.15 04/09/2025 17:50:52 -72.64, 84.01 115.12 2.72 69
43 04/09/2025 18:42:46 72.61,-108.57 64.83 04/09/2025 18:41:32 72.60,-108.72 64.84 5.25 74
44 04/09/2025 19:33:29 -72.53, 58.90 115.27 04/09/2025 19:32:15 -72.56, 58.52 115.21 12.91 74
45 04/09/2025 20:24:10 72.31,-133.35 64.48 04/09/2025 20:22:59 72.32,-134.62 64.56 42.88 71
46 04/09/2025 21:14:53 -72.24, 34.11 115.62 04/09/2025 21:13:43 -72.23, 32.53 115.53 53.63 70
47 04/09/2025 22:05:34 72.02,-158.15 64.14 04/09/2025 22:04:26 72.04,-160.50 64.29 80.67 68
48 04/09/2025 22:56:17 -71.94, 9.30 115.96 04/09/2025 22:55:10 -71.95, 6.66 115.81 91.24 67



Historial Predications of SNOs between NOAA-21 and METOP-C
